SCP
0 0 0 0 0 0 0 0 0 0 0 0 0 0 0 0 0 0 0 0 0 0 0 0 0 0 0 1 0 1 1 1 1 1 1 1 0 0 0 0 0 0 0
1 0 1 1 0 0 0 0 0 0 0 0 0 0 0 0 0 0 0 0 0 0 0 0 0 1 1 1 1 1 0 0 1 1 1 1 0 0 0 0 0 0 0
0 0 1 1 0 0 0 1 1 1 1 1 1 1 1 1 1 0 1 0 1 0 0 0 0 0 0 1 1 1 0 1 1 1 1 1 1 0 0 0 0 0 0
1 1 1 1 0 0 0 1 2 1 1 1 1 1 1 1 1 1 1 1 1 1 0 0 0 1 1 1 1 0 0 1 1 1 1 1 1 1 0 0 0 0 0
1 1 0 1 1 1 0 1 1 1 1 2 1 1 2 2 2 1 1 1 1 1 1 0 0 0 0 0 0 0 0 0 0 0 0 1 1 1 1 0 0 0 0
1 1 1 1 1 1 1 2 2 2 1 1 0 1 1 1 1 1 0 0 0 0 0 0 0 0 0 0 0 0 0 0 0 0 0 0 0 1 1 1 0 0 0
1 1 1 1 2 2 2 2 2 1 1 1 1 1 1 0 0 0 0 0 0 0 0 0 0 0 0 0 0 0 0 0 0 0 0 0 0 0 0 0 0 0 0
1 1 1 1 1 1 1 1 1 1 1 1 1 0 0 0 0 0 0 0 0 0 0 0 0 0 0 0 0 0 0 0 0 0 0 0 0 0 0 0 0 0 0
0 0 0 0 0 0 0 0 0 0 0 0 0 0 0 0 0 0 0 0 0 0 0 0 0 0 0 0 0 0 0 0 0 0 0 0 0 0 0 1 0 0 0
0 0 0 0 1 0 0 0 0 0 0 0 1 0 0 0 -0 0 0 0 0 0 0 0 0 0 0 0 0 0 0 0 0 0 0 0 0 0 0 1 1 0 0
0 0 0 0 1 1 0 0 0 0 0 0 0 0 0 0 0 0 0 0 0 0 -0 0 0 0 0 0 0 0 0 0 0 0 0 0 0 0 0 1 1 1 1
0 0 0 0 0 0 0 0 0 0 0 0 0 0 0 0 0 0 0 0 0 0 0 0 0 0 0 0 0 0 0 0 0 0 0 0 0 0 0 1 2 1 1
0 0 0 0 0 0 0 0 0 0 0 0 0 0 0 0 0 0 0 0 0 0 0 0 0 0 0 0 0 0 0 0 0 0 0 0 0 0 0 1 1 1 1
0 0 0 0 0 0 0 0 0 0 0 0 0 0 0 0 0 0 0 0 0 0 0 0 0 0 0 0 0 0 0 0 0 0 0 0 0 0 0 0 0 0 1
0 0 0 0 0 0 0 0 0 0 0 0 0 0 0 0 0 0 0 0 0 0 0 0 0 0 0 0 0 0 0 0 0 0 0 0 0 0 0 0 0 0 0
0 0 0 0 0 0 0 0 0 0 0 0 0 0 0 0 0 0 0 0 0 0 0 0 0 0 0 0 0 0 0 0 0 0 0 0 0 0 0 0 0 0 0
0 0 0 0 0 0 0 0 0 0 0 0 0 0 0 0 0 0 0 0 0 0 0 0 0 0 0 0 0 0 0 0 0 0 0 0 0 0 0 0 0 0 0
0 0 0 0 0 0 0 0 0 0 0 0 0 0 0 0 0 0 0 0 0 0 0 0 0 0 0 0 0 0 0 0 0 0 0 0 0 0 0 0 0 0 0
0 0 0 0 0 0 0 0 0 0 0 0 0 0 0 0 0 0 0 0 0 0 0 0 0 0 0 0 0 0 0 0 0 0 0 0 0 0 0 0 0 0 0
0 0 0 0 0 0 0 0 0 0 0 0 0 0 0 0 0 0 0 0 0 0 0 0 0 0 0 0 0 0 0 0 0 0 0 0 0 0 0 0 0 0 0
0 0 0 0 0 0 0 0 0 0 0 0 0 0 0 0 0 0 0 0 0 0 0 0 0 0 0 0 0 0 0 0 0 0 0 0 0 0 0 0 0 0 0
0 0 0 0 0 0 0 0 0 0 0 0 0 0 0 0 0 0 0 0 0 0 0 0 0 0 0 0 0 0 0 0 0 0 0 0 0 0 0 0 0 0 0
0 0 0 0 0 0 0 0 0 0 0 0 0 0 0 0 0 0 0 0 0 0 0 0 0 0 0 0 0 0 0 0 0 0 0 0 0 0 0 0 0 0 0
0 0 0 0 0 0 0 0 0 0 0 0 0 0 0 0 -0 0 0 0 0 0 0 0 0 0 0 0 0 0 0 0 0 0 0 0 0 0 0 0 -0 0 0
0 0 0 0 0 0 0 0 0 0 0 -0 -0 -0 -0 -0 -0 0 -0 0 0 0 0 0 0 0 0 0 0 0 0 0 0 0 0 0 0 0 0 0 0 0 0
0 0 0 0 0 0 0 0 0 -0 0 0 0 -0 -0 -0 -0 -0 -0 0 0 0 0 0 0 0 0 0 0 0 0 0 0 0 0 0 -0 0 0 -0 0 0 0
Wind_Speed_500mb
33 31 29 30 31 34 36 38 37 35 34 34 35 37 38 41 39 37 40 41 43 44 44 41 36 33 32 32 34 36 37 38 40 39 39 37 37 38 41 44 44 48 48
36 35 34 35 35 34 35 37 38 38 36 34 32 34 36 38 42 43 44 45 44 45 42 42 39 35 32 30 31 29 34 38 41 42 46 48 48 46 46 46 45 50 53
41 39 37 39 38 37 36 38 36 37 37 39 39 39 39 37 43 47 49 50 48 45 45 45 39 35 36 34 28 29 33 36 40 42 42 45 45 47 50 51 52 49 53
39 39 39 40 38 42 40 41 38 37 41 39 46 48 49 49 62 59 59 54 48 46 44 44 41 39 38 36 33 34 35 32 30 36 34 35 42 43 45 45 51 53 53
40 38 44 41 39 43 45 45 42 38 46 41 60 63 57 58 51 50 53 48 54 60 52 46 41 38 44 37 33 32 33 33 30 29 26 30 35 41 45 47 53 58 59
40 41 42 40 40 42 43 44 40 51 61 53 62 64 58 52 51 60 64 69 61 50 52 48 41 45 46 40 35 32 32 30 30 32 35 37 37 38 44 45 47 44 55
35 40 43 41 44 50 54 55 61 64 63 56 70 79 85 78 70 76 72 65 60 53 56 52 48 53 48 41 37 36 34 33 33 34 36 38 39 42 47 49 47 47 47
45 49 56 54 53 56 63 62 59 63 60 65 66 67 65 84 92 95 76 70 61 42 38 62 62 58 53 45 44 41 42 41 42 43 44 47 47 47 50 48 46 50 45
55 52 45 53 60 59 60 62 68 72 76 71 68 57 26 16 37 36 48 68 70 58 46 55 75 67 53 48 48 48 49 50 49 54 53 54 55 54 51 51 47 49 52
35 36 39 42 47 48 50 43 47 50 42 37 41 36 30 42 34 34 35 38 33 30 29 49 56 58 54 57 58 58 59 61 61 61 63 61 63 61 55 50 49 50 49
21 26 33 28 34 34 31 31 23 22 29 45 51 44 42 37 32 32 28 16 38 49 71 63 62 64 68 74 73 72 72 73 75 72 69 68 68 67 64 54 51 51 47
27 30 31 27 32 36 45 35 29 35 45 48 49 50 44 33 42 45 37 35 26 56 70 73 81 81 81 83 80 80 80 84 85 79 72 71 72 75 73 66 60 53 53
13 20 25 26 28 30 30 36 39 40 42 48 50 51 53 57 58 60 57 50 50 74 76 79 79 76 82 87 90 90 86 86 86 82 76 72 71 79 79 76 68 58 53
17 24 29 30 28 30 34 32 34 36 38 41 41 42 46 47 47 46 42 37 47 55 56 76 80 79 84 97 103 100 98 94 94 91 87 79 75 76 78 75 74 67 57
14 17 23 27 31 32 33 35 36 38 38 39 40 42 45 49 54 54 54 53 45 54 71 67 52 48 59 73 74 78 87 90 93 92 86 84 77 78 78 81 76 66 63
18 22 28 32 35 36 38 41 44 45 45 46 47 48 49 50 52 54 56 58 56 53 78 66 53 58 62 66 74 84 86 92 99 98 94 86 73 74 77 80 83 74 71
22 28 32 36 37 41 42 43 44 45 45 44 45 46 46 47 48 48 51 49 46 46 64 95 54 51 53 56 56 58 64 67 74 74 80 84 90 83 75 72 73 78 70
31 36 39 42 45 45 44 45 45 45 45 45 45 46 47 48 52 49 42 43 46 47 52 81 64 59 54 53 54 56 51 51 61 64 73 83 81 72 72 72 75 69 65
35 37 39 39 40 41 42 41 41 39 39 39 39 42 43 45 46 43 45 44 44 46 50 64 78 64 62 55 55 51 49 51 51 58 70 65 78 91 80 70 70 86 80
33 34 34 35 35 35 35 35 35 36 38 41 42 41 42 42 46 48 49 51 52 55 57 66 76 80 68 61 54 54 54 50 55 50 54 53 57 59 65 67 74 73 68
30 30 30 30 31 31 31 32 34 38 41 42 39 40 43 44 44 42 44 48 54 57 65 68 72 74 77 63 58 59 67 63 58 56 45 46 53 49 46 53 58 79 80
24 25 28 29 30 30 32 36 42 42 42 42 41 38 39 34 43 47 46 49 51 56 65 74 78 80 80 73 62 53 53 57 58 49 47 44 41 50 55 56 59 66 72
21 25 24 27 31 31 34 35 33 38 39 36 29 28 35 38 46 49 53 56 62 71 76 80 86 84 90 90 73 65 62 59 62 57 55 64 56 57 54 59 38 53 67
20 23 27 29 29 27 32 34 32 28 25 25 28 32 40 43 40 46 53 59 62 70 67 62 74 85 86 87 78 75 69 68 72 67 58 63 58 53 41 39 41 49 51
18 27 28 26 27 25 28 27 26 25 25 26 28 31 30 40 45 43 48 55 63 61 50 49 58 62 62 63 50 57 74 74 74 77 57 50 60 52 43 39 32 38 45
15 28 26 22 19 24 22 24 33 34 36 33 32 28 30 33 41 48 51 54 56 48 50 51 55 60 56 43 33 34 43 52 58 58 42 35 39 39 24 7 16 23 32
Wind_Direction_500mb
231 235 237 240 244 247 249 252 255 261 265 270 273 273 272 275 274 271 256 257 253 253 256 255 253 258 260 265 272 272 274 273 276 273 269 268 276 283 279 275 273 273 269
237 239 242 245 241 241 241 242 248 254 258 262 270 278 280 285 274 268 267 265 256 252 250 258 258 259 263 270 273 274 272 273 276 273 271 270 272 277 277 278 276 273 273
236 241 245 248 248 242 240 238 243 248 254 254 257 258 266 278 280 270 268 269 267 259 264 266 258 255 267 277 276 286 284 284 280 278 278 278 279 274 268 269 270 268 270
240 248 252 254 258 251 240 240 233 239 248 260 271 268 261 264 280 277 274 272 272 269 271 259 254 264 276 275 275 288 289 291 293 293 290 282 276 274 268 270 268 264 261
240 247 261 264 253 253 251 241 243 246 251 247 268 273 271 264 258 272 269 262 281 273 264 261 266 274 276 268 274 280 284 288 294 298 299 293 279 276 277 280 277 268 259
249 253 256 259 261 262 257 258 255 262 262 268 275 271 270 268 264 257 263 275 278 282 274 269 260 262 261 260 269 270 271 280 286 289 289 287 286 282 283 285 285 284 265
251 262 262 262 265 265 268 271 269 268 274 280 283 277 276 272 274 266 261 277 265 270 268 266 261 260 256 256 262 265 270 275 282 287 288 288 288 286 284 286 287 285 282
266 266 272 270 263 262 265 266 268 274 277 282 279 278 287 277 287 259 262 269 259 248 265 269 263 253 249 252 257 262 267 273 277 281 285 285 286 288 286 288 288 286 283
282 277 277 275 283 280 274 271 269 279 285 282 280 279 281 286 301 286 278 260 260 244 268 268 266 251 251 256 262 263 267 270 275 277 280 283 284 285 284 284 286 286 285
276 278 278 282 282 283 287 286 285 282 281 272 273 269 272 273 287 281 273 252 230 257 281 279 265 243 250 262 267 268 266 267 272 275 276 279 279 278 281 278 278 282 282
282 283 289 279 284 280 273 298 293 292 278 274 281 272 279 262 250 242 268 293 250 243 269 271 259 259 262 268 270 271 269 269 272 274 275 274 273 273 272 270 271 274 274
290 296 293 288 285 279 277 283 273 275 270 271 274 271 265 249 253 246 256 270 242 270 274 274 265 266 268 269 272 272 273 275 276 277 272 267 267 268 266 269 264 260 265
303 306 303 299 293 282 280 275 275 276 275 270 263 260 255 259 263 264 262 270 269 269 272 277 280 281 279 278 279 281 280 279 281 281 277 272 266 263 262 263 256 248 254
313 309 309 305 303 305 308 308 306 300 295 291 288 281 276 274 274 272 272 274 280 276 271 271 277 275 275 280 282 283 282 282 280 279 279 276 268 259 259 258 253 249 246
307 308 305 305 305 302 303 303 302 301 297 291 287 285 282 279 276 275 275 275 278 283 281 282 280 280 278 274 276 278 279 282 278 274 270 269 263 256 250 252 254 252 242
316 314 312 308 306 305 303 304 304 300 298 296 293 291 290 290 290 289 286 283 279 275 280 279 280 279 280 283 285 286 285 278 272 272 269 264 262 262 257 251 254 256 243
316 319 317 318 314 310 309 307 304 307 306 305 302 300 299 297 295 294 292 288 283 281 279 288 287 288 287 293 293 292 286 281 276 270 271 268 261 259 258 257 255 253 248
321 319 321 321 321 320 319 316 315 312 309 306 305 305 306 305 303 300 296 291 286 282 281 289 293 294 291 291 289 292 298 295 280 275 267 262 263 261 261 257 255 252 251
321 325 326 321 320 320 319 320 322 321 318 316 314 313 315 313 311 305 301 293 290 288 284 285 290 293 291 288 289 291 291 297 302 294 274 280 268 260 260 258 253 251 248
329 328 326 328 327 327 327 329 328 326 324 325 321 318 317 315 316 311 304 299 295 290 285 282 288 289 289 289 288 290 293 295 298 302 284 270 269 266 257 254 251 248 244
334 337 335 338 337 334 329 326 324 325 326 323 323 324 323 319 319 320 316 306 300 297 293 288 286 291 290 289 282 284 280 292 291 297 294 289 276 272 268 264 262 254 250
347 344 343 341 339 334 322 319 318 324 327 329 330 327 322 334 335 329 326 323 317 303 297 294 289 284 287 287 282 279 284 283 284 289 290 288 281 277 271 267 264 247 244
359 355 346 338 331 329 323 325 335 329 328 332 336 343 342 332 335 328 324 323 317 316 311 307 299 299 296 300 284 279 279 278 279 285 284 292 296 292 292 281 272 240 246
10 4 348 339 340 343 326 330 339 352 3 2 353 342 342 341 343 338 322 323 325 319 326 322 314 308 310 300 288 283 283 278 281 285 285 279 292 292 283 273 267 257 233
11 4 355 349 357 5 357 4 2 3 5 358 355 354 344 352 348 332 324 325 328 338 334 332 335 329 314 317 282 277 273 268 273 277 281 279 288 293 286 268 265 257 238
2 3 359 360 14 9 9 2 1 2 357 352 2 7 15 1 355 350 348 344 346 348 352 355 354 349 349 321 321 291 289 278 276 278 291 263 293 279 286 241 240 235 237
Wind_Speed_850mb
33 31 29 30 31 34 36 38 37 35 34 34 35 37 38 41 39 37 40 41 43 44 44 41 36 33 32 32 34 36 37 38 40 39 39 37 37 38 41 44 44 48 48
36 35 34 35 35 34 35 37 38 38 36 34 32 34 36 38 42 43 44 45 44 45 42 42 39 35 32 30 31 29 34 38 41 42 46 48 48 46 46 46 45 50 53
41 39 37 39 38 37 36 38 36 37 37 39 39 39 39 37 43 47 49 50 48 45 45 45 39 35 36 34 28 29 33 36 40 42 42 45 45 47 50 51 52 49 53
39 39 39 40 38 42 40 41 38 37 41 39 46 48 49 49 62 59 59 54 48 46 44 44 41 39 38 36 33 34 35 32 30 36 34 35 42 43 45 45 51 53 53
40 38 44 41 39 43 45 45 42 38 46 41 60 63 57 58 51 50 53 48 54 60 52 46 41 38 44 37 33 32 33 33 30 29 26 30 35 41 45 47 53 58 59
40 41 42 40 40 42 43 44 40 51 61 53 62 64 58 52 51 60 64 69 61 50 52 48 41 45 46 40 35 32 32 30 30 32 35 37 37 38 44 45 47 44 55
35 40 43 41 44 50 54 55 61 64 63 56 70 79 85 78 70 76 72 65 60 53 56 52 48 53 48 41 37 36 34 33 33 34 36 38 39 42 47 49 47 47 47
45 49 56 54 53 56 63 62 59 63 60 65 66 67 65 84 92 95 76 70 61 42 38 62 62 58 53 45 44 41 42 41 42 43 44 47 47 47 50 48 46 50 45
55 52 45 53 60 59 60 62 68 72 76 71 68 57 26 16 37 36 48 68 70 58 46 55 75 67 53 48 48 48 49 50 49 54 53 54 55 54 51 51 47 49 52
35 36 39 42 47 48 50 43 47 50 42 37 41 36 30 42 34 34 35 38 33 30 29 49 56 58 54 57 58 58 59 61 61 61 63 61 63 61 55 50 49 50 49
21 26 33 28 34 34 31 31 23 22 29 45 51 44 42 37 32 32 28 16 38 49 71 63 62 64 68 74 73 72 72 73 75 72 69 68 68 67 64 54 51 51 47
27 30 31 27 32 36 45 35 29 35 45 48 49 50 44 33 42 45 37 35 26 56 70 73 81 81 81 83 80 80 80 84 85 79 72 71 72 75 73 66 60 53 53
13 20 25 26 28 30 30 36 39 40 42 48 50 51 53 57 58 60 57 50 50 74 76 79 79 76 82 87 90 90 86 86 86 82 76 72 71 79 79 76 68 58 53
17 24 29 30 28 30 34 32 34 36 38 41 41 42 46 47 47 46 42 37 47 55 56 76 80 79 84 97 103 100 98 94 94 91 87 79 75 76 78 75 74 67 57
14 17 23 27 31 32 33 35 36 38 38 39 40 42 45 49 54 54 54 53 45 54 71 67 52 48 59 73 74 78 87 90 93 92 86 84 77 78 78 81 76 66 63
18 22 28 32 35 36 38 41 44 45 45 46 47 48 49 50 52 54 56 58 56 53 78 66 53 58 62 66 74 84 86 92 99 98 94 86 73 74 77 80 83 74 71
22 28 32 36 37 41 42 43 44 45 45 44 45 46 46 47 48 48 51 49 46 46 64 95 54 51 53 56 56 58 64 67 74 74 80 84 90 83 75 72 73 78 70
31 36 39 42 45 45 44 45 45 45 45 45 45 46 47 48 52 49 42 43 46 47 52 81 64 59 54 53 54 56 51 51 61 64 73 83 81 72 72 72 75 69 65
35 37 39 39 40 41 42 41 41 39 39 39 39 42 43 45 46 43 45 44 44 46 50 64 78 64 62 55 55 51 49 51 51 58 70 65 78 91 80 70 70 86 80
33 34 34 35 35 35 35 35 35 36 38 41 42 41 42 42 46 48 49 51 52 55 57 66 76 80 68 61 54 54 54 50 55 50 54 53 57 59 65 67 74 73 68
30 30 30 30 31 31 31 32 34 38 41 42 39 40 43 44 44 42 44 48 54 57 65 68 72 74 77 63 58 59 67 63 58 56 45 46 53 49 46 53 58 79 80
24 25 28 29 30 30 32 36 42 42 42 42 41 38 39 34 43 47 46 49 51 56 65 74 78 80 80 73 62 53 53 57 58 49 47 44 41 50 55 56 59 66 72
21 25 24 27 31 31 34 35 33 38 39 36 29 28 35 38 46 49 53 56 62 71 76 80 86 84 90 90 73 65 62 59 62 57 55 64 56 57 54 59 38 53 67
20 23 27 29 29 27 32 34 32 28 25 25 28 32 40 43 40 46 53 59 62 70 67 62 74 85 86 87 78 75 69 68 72 67 58 63 58 53 41 39 41 49 51
18 27 28 26 27 25 28 27 26 25 25 26 28 31 30 40 45 43 48 55 63 61 50 49 58 62 62 63 50 57 74 74 74 77 57 50 60 52 43 39 32 38 45
15 28 26 22 19 24 22 24 33 34 36 33 32 28 30 33 41 48 51 54 56 48 50 51 55 60 56 43 33 34 43 52 58 58 42 35 39 39 24 7 16 23 32
Wind_Direction_850mb
231 235 237 240 244 247 249 252 255 261 265 270 273 273 272 275 274 271 256 257 253 253 256 255 253 258 260 265 272 272 274 273 276 273 269 268 276 283 279 275 273 273 269
237 239 242 245 241 241 241 242 248 254 258 262 270 278 280 285 274 268 267 265 256 252 250 258 258 259 263 270 273 274 272 273 276 273 271 270 272 277 277 278 276 273 273
236 241 245 248 248 242 240 238 243 248 254 254 257 258 266 278 280 270 268 269 267 259 264 266 258 255 267 277 276 286 284 284 280 278 278 278 279 274 268 269 270 268 270
240 248 252 254 258 251 240 240 233 239 248 260 271 268 261 264 280 277 274 272 272 269 271 259 254 264 276 275 275 288 289 291 293 293 290 282 276 274 268 270 268 264 261
240 247 261 264 253 253 251 241 243 246 251 247 268 273 271 264 258 272 269 262 281 273 264 261 266 274 276 268 274 280 284 288 294 298 299 293 279 276 277 280 277 268 259
249 253 256 259 261 262 257 258 255 262 262 268 275 271 270 268 264 257 263 275 278 282 274 269 260 262 261 260 269 270 271 280 286 289 289 287 286 282 283 285 285 284 265
251 262 262 262 265 265 268 271 269 268 274 280 283 277 276 272 274 266 261 277 265 270 268 266 261 260 256 256 262 265 270 275 282 287 288 288 288 286 284 286 287 285 282
266 266 272 270 263 262 265 266 268 274 277 282 279 278 287 277 287 259 262 269 259 248 265 269 263 253 249 252 257 262 267 273 277 281 285 285 286 288 286 288 288 286 283
282 277 277 275 283 280 274 271 269 279 285 282 280 279 281 286 301 286 278 260 260 244 268 268 266 251 251 256 262 263 267 270 275 277 280 283 284 285 284 284 286 286 285
276 278 278 282 282 283 287 286 285 282 281 272 273 269 272 273 287 281 273 252 230 257 281 279 265 243 250 262 267 268 266 267 272 275 276 279 279 278 281 278 278 282 282
282 283 289 279 284 280 273 298 293 292 278 274 281 272 279 262 250 242 268 293 250 243 269 271 259 259 262 268 270 271 269 269 272 274 275 274 273 273 272 270 271 274 274
290 296 293 288 285 279 277 283 273 275 270 271 274 271 265 249 253 246 256 270 242 270 274 274 265 266 268 269 272 272 273 275 276 277 272 267 267 268 266 269 264 260 265
303 306 303 299 293 282 280 275 275 276 275 270 263 260 255 259 263 264 262 270 269 269 272 277 280 281 279 278 279 281 280 279 281 281 277 272 266 263 262 263 256 248 254
313 309 309 305 303 305 308 308 306 300 295 291 288 281 276 274 274 272 272 274 280 276 271 271 277 275 275 280 282 283 282 282 280 279 279 276 268 259 259 258 253 249 246
307 308 305 305 305 302 303 303 302 301 297 291 287 285 282 279 276 275 275 275 278 283 281 282 280 280 278 274 276 278 279 282 278 274 270 269 263 256 250 252 254 252 242
316 314 312 308 306 305 303 304 304 300 298 296 293 291 290 290 290 289 286 283 279 275 280 279 280 279 280 283 285 286 285 278 272 272 269 264 262 262 257 251 254 256 243
316 319 317 318 314 310 309 307 304 307 306 305 302 300 299 297 295 294 292 288 283 281 279 288 287 288 287 293 293 292 286 281 276 270 271 268 261 259 258 257 255 253 248
321 319 321 321 321 320 319 316 315 312 309 306 305 305 306 305 303 300 296 291 286 282 281 289 293 294 291 291 289 292 298 295 280 275 267 262 263 261 261 257 255 252 251
321 325 326 321 320 320 319 320 322 321 318 316 314 313 315 313 311 305 301 293 290 288 284 285 290 293 291 288 289 291 291 297 302 294 274 280 268 260 260 258 253 251 248
329 328 326 328 327 327 327 329 328 326 324 325 321 318 317 315 316 311 304 299 295 290 285 282 288 289 289 289 288 290 293 295 298 302 284 270 269 266 257 254 251 248 244
334 337 335 338 337 334 329 326 324 325 326 323 323 324 323 319 319 320 316 306 300 297 293 288 286 291 290 289 282 284 280 292 291 297 294 289 276 272 268 264 262 254 250
347 344 343 341 339 334 322 319 318 324 327 329 330 327 322 334 335 329 326 323 317 303 297 294 289 284 287 287 282 279 284 283 284 289 290 288 281 277 271 267 264 247 244
359 355 346 338 331 329 323 325 335 329 328 332 336 343 342 332 335 328 324 323 317 316 311 307 299 299 296 300 284 279 279 278 279 285 284 292 296 292 292 281 272 240 246
10 4 348 339 340 343 326 330 339 352 3 2 353 342 342 341 343 338 322 323 325 319 326 322 314 308 310 300 288 283 283 278 281 285 285 279 292 292 283 273 267 257 233
11 4 355 349 357 5 357 4 2 3 5 358 355 354 344 352 348 332 324 325 328 338 334 332 335 329 314 317 282 277 273 268 273 277 281 279 288 293 286 268 265 257 238
2 3 359 360 14 9 9 2 1 2 357 352 2 7 15 1 355 350 348 344 346 348 352 355 354 349 349 321 321 291 289 278 276 278 291 263 293 279 286 241 240 235 237